Location: Eaton
(41.3139°N, 82.0207°W)
Time: 13:00:38
(UTC+00:00)

Cosmos 2221 - Pass Details

Date: 17 June 2021
Orbit: 591 x 616 km, 82.5° (Epoch: 26 July)

Event Time Altitude Azimuth Distance (km) Brightness Sun altitude
Rises 07:48:43 0° 341° (NNW) 2,859 6.5 -17.7°
Reaches altitude 10° 07:51:08 10° 331° (NNW) 1,947 5.4 -17.4°
Maximum altitude 07:54:53 30° 270° (W) 1,076 3.5 -17.0°
Enters shadow 07:55:41 28° 249° (WSW) 1,127 3.4 -16.9°
